Meath Environmental Platform

Observations for Trim Market St

Time AQI Temp °C Hum % Pres Pa CO μg/m³ H₂S μg/m³ NO μg/m³ NO₂ μg/m³ O₃ μg/m³ SO₂ μg/m³ PM1 μg/m³ PM2.5 μg/m³ PM10 μg/m³
Tuesday 7 July 2026
22:31 1 22.6 64 57,102 0 0 0 8.13 14.77 0 1.43 2.82 5.55
22:30 1 22.7 64 57,125 0 0 0 7.82 12.86 0 1.43 3.32 4.89
22:29 1 22.7 64 57,149 0 0.4 0 9.73 17.3 0 2.14 3.32 4.89
22:28 1 22.7 64 57,171 0 0 0 10.04 11.02 0 0.71 2.83 4.88
22:27 1 22.8 64 57,186 0 0 0 7.51 15.24 0 2.85 5.3 7.53
22:26 1 22.8 64 57,203 0 1.24 0 8.83 13.2 0 2.85 3.83 6.21
22:25 1 22.8 64 57,227 0.7 10.22 0 9.64 13.22 0 2.14 4.33 6.2
22:24 1 22.9 64 57,250 3.81 13.73 0.45 11.72 8.1 0 1.43 4.33 6.87
22:23 1 22.9 64 57,275 0 2.12 0 8.52 11.62 0 2.14 5.32 7.53
22:22 1 22.9 64 57,303 0 3.57 0 13.34 18.42 0 1.43 4.34 6.86
22:21 1 23 64 57,331 0 0 0 7.53 15.38 0 2.85 4.84 6.86
22:19 1 23 63 57,355 0 2.46 5.29 23.75 3.12 0 2.85 5.35 8.86
22:16 1 23.1 63 57,401 0 1.53 0 12.26 14.13 0 2.14 3.88 5.53
22:15 1 23.1 63 57,420 0 0.34 0 9.47 14.24 0 1.43 3.88 6.19
22:14 1 23.2 63 57,434 0 1.34 0 11.45 13 0 2.85 4.38 6.19
22:13 1 23.2 63 57,452 0 0 0 11.65 8.78 0 1.43 3.39 4.85
22:12 1 23.2 63 57,466 0 1.55 0.22 12.08 7.95 0 2.14 4.39 6.19
22:11 1 23.3 63 57,479 0 3.01 0 15.65 11.21 0 2.85 5.38 7.53
22:10 1 23.3 63 57,498 0 0.91 0 11.96 14.23 0 2.14 4.4 6.19
22:08 1 23.4 62 57,525 0 0.04 0 9.06 15.79 0 0.71 3.41 4.84